Location: Bethera
(33.2010°N, 79.7880°W)
Time: 01:24:24
(UTC-04:00)

Daily predictions for brighter satellites

Satellite Brightness Start Highest point End
(mag) Time Altitude Azimuth Time Altitude Azimuth Time Altitude Azimuth
Cosmos 2297 4.3 00:06:54 49° W 00:07:20 50° WNW 00:12:53 10° N
Mayak 1.2 00:07:13 10° NNE 00:08:13 16° NE 00:08:13 16° NE
Cosmos 2082 Rocket 2.5 00:10:05 10° NNW 00:14:50 63° NNW 00:14:50 63° NNW
Cosmos 1833 Rocket 3.1 00:10:46 10° NNW 00:15:19 57° NW 00:15:19 57° NW
CZ-2C R/B 3.7 00:16:01 10° N 00:20:56 37° WNW 00:21:06 37° WNW
Cosmos 1943 Rocket 4.0 00:30:13 21° ENE 00:30:13 21° ENE 00:32:23 10° NE
Cosmos 2074 Rocket 4.1 00:23:31 10° N 00:29:11 73° NNW 00:29:11 73° NNW
Terra 4.3 00:41:23 13° WNW 00:41:23 13° WNW 00:42:48 10° WNW
ADEOS Rocket 3.3 00:52:59 10° N 00:58:38 70° NW 00:58:38 70° NW
CENTAUR R/B 3.4 00:59:39 10° NW 01:07:22 56° WSW 01:07:22 56° WSW
Cosmos 2154 Rocket 4.4 01:10:26 10° NNW 01:15:42 57° NW 01:15:42 57° NW
Cosmos 2181 Rocket 4.3 01:18:53 64° NNE 01:18:53 64° NNE 01:24:07 10° N
USA 234 3.4 01:15:59 10° NE 01:21:30 65° ENE 01:21:30 65° ENE
Lacrosse 4 Rocket 4.1 01:35:25 16° NE 01:35:25 16° NE 01:36:26 10° NE
Cosmos 2341 Rocket 4.3 01:27:16 10° N 01:32:35 61° NW 01:32:35 61° NW
Cosmos 2369 Rocket 3.2 01:36:42 41° NW 01:36:42 41° NW 01:41:09 10° N
SL-8 Rocket 4.3 01:32:32 10° N 01:37:55 65° NNE 01:37:55 65° NNE
Cosmos 2218 Rocket 4.3 01:35:26 10° N 01:40:43 60° NE 01:40:43 60° NE
Mayak 1.6 01:44:14 10° NW 01:44:50 12° NW 01:44:50 12° NW
Meteor 2-3 Rocket 4.3 01:53:55 55° NNE 01:53:55 55° NNE 01:58:25 10° N
Cosmos 2366 rocket 4.2 02:01:16 10° N 02:06:25 63° NNW 02:06:25 63° NNW
Cosmos 1943 Rocket 3.6 02:11:43 29° NW 02:11:43 29° NW 02:16:02 10° N
Nadezhda 3 Rocket 4.2 02:16:03 66° ENE 02:16:03 66° ENE 02:21:58 10° NNE
CZ-2D R/B 4.0 02:12:49 10° NE 02:16:20 20° E 02:16:20 20° E
SL-16 R/B 4.2 02:21:30 18° ESE 02:24:29 26° ENE 02:29:23 10° NNE
ATLAS 5 CENTAUR R/B 3.7 02:26:36 44° E 02:26:36 44° E 02:37:28 10° NE
Resurs 1-4 Rocket 3.4 02:30:36 10° NE 02:35:00 30° E 02:35:00 30° E
Cosmos 841 Rocket 4.1 02:36:44 10° N 02:41:34 50° ENE 02:41:34 50° ENE
GP-B 4.3 02:39:51 10° N 02:42:42 39° N 02:42:42 39° N
DASH 4.3 02:53:48 46° SE 02:53:48 46° SE 03:10:26 10° E
Cosmos 1437 Rocket 4.4 02:55:46 35° NE 02:55:46 35° NE 02:58:22 10° NNE
Meteor 2-6 Rocket 4.2 02:49:23 10° N 02:54:27 74° NE 02:54:27 74° NE
H-2A R/B 4.2 02:52:09 10° NNE 02:54:24 26° ENE 02:54:24 26° ENE
Cosmos 2219 4.3 02:54:07 10° N 02:59:24 39° ENE 03:02:04 25° ESE
Okean 1-7 4.0 02:57:54 10° N 03:01:29 44° NE 03:01:29 44° NE
COSMOS 2455 3.2 02:57:00 10° NNW 03:02:58 62° ENE 03:04:51 42° ESE
Cosmos 1821 Rocket 3.9 03:00:23 10° N 03:06:44 79° W 03:07:09 75° SW
Cosmos 1703 Rocket 4.4 03:02:31 10° N 03:05:41 47° N 03:05:41 47° N
Lacrosse 4 Rocket 3.7 03:11:44 18° NW 03:11:44 18° NW 03:14:14 10° NNW
SL-24 DEB 4.5 03:13:50 66° NNE 03:13:50 66° NNE 03:17:51 10° N
IRS-1D 3.7 03:12:19 10° NNE 03:17:19 61° E 03:17:29 60° ESE
AQUA 3.9 03:12:49 10° NNE 03:17:10 74° N 03:17:10 74° N
Cosmos 1354 Rocket 3.9 03:21:11 83° WNW 03:21:11 83° WNW 03:26:23 10° NNE
Cosmos 2297 Rocket 4.4 03:16:45 10° N 03:21:10 23° ENE 03:25:33 10° ESE
ATLAS CENTAUR R/B 2.3 03:24:32 43° NNE 03:24:32 43° NNE 03:27:15 10° NNE
Cosmos 44 3.9 03:25:57 43° NW 03:25:57 43° NW 03:30:21 10° NNE
Meteor 1-27 Rocket 3.7 03:20:54 10° N 03:26:47 89° E 03:27:54 61° S
Cosmos 1733 Rocket 4.1 03:26:54 35° ESE 03:27:18 36° E 03:31:17 10° NNE
Cosmos 44 Rocket 3.3 03:29:14 73° NW 03:29:14 73° NW 03:34:03 10° NNE
Cosmos 968 Rocket 3.7 03:28:35 57° SE 03:29:11 62° ESE 03:34:23 10° NNE
Cosmos 2227 Rocket 3.9 03:25:17 10° N 03:30:15 30° ENE 03:35:10 10° ESE
IRS-1C 4.0 03:30:07 10° N 03:35:27 75° WNW 03:36:00 68° SW
Cosmos 1656 4.0 03:34:57 47° SSE 03:36:13 58° ESE 03:41:46 10° NNE
ADEOS II 3.8 03:35:01 10° NE 03:39:23 26° E 03:42:17 17° SE
Shenzhou-11 Module 4.4 03:44:12 20° ENE 03:44:12 20° ENE 03:45:17 10° ENE
Meteor 1-4 Rocket 4.0 03:46:08 31° NW 03:46:08 31° NW 03:48:28 10° N
Cosmos 389 Rocket 2.8 03:53:17 67° N 03:53:17 67° N 03:56:29 10° N
CZ-2D R/B 4.0 03:51:04 10° NNE 03:55:09 52° E 03:55:57 44° SE
Milstar 3 Cent rocket 4.2 03:33:43 10° WSW 03:55:26 72° S 04:04:57 10° E
CZ-2D R/B 2.7 03:51:47 10° N 03:56:47 42° WNW 03:57:40 39° W
Cosmos 540 Rocket 3.6 03:52:53 10° NNW 03:57:48 48° WSW 03:57:48 48° WSW
Helios 1A Rocket 3.6 03:54:46 10° NNE 03:58:40 46° E 03:59:42 37° SE
Delta 2 Rocket 3.4 03:58:55 50° WNW 03:59:58 81° N 04:04:40 10° E
ARIANE 5 R/B 2.5 03:57:04 10° N 04:02:00 65° WNW 04:03:07 50° SW
GPS 2-04 Rocket1 3.1 04:01:19 46° WNW 04:02:21 64° N 04:06:27 10° ENE
Cosmos 1605 Rocket 4.0 03:57:08 10° NNW 04:03:06 57° W 04:05:05 40° SSW
UNKNOWN OBJECT B 3.0 04:02:24 10° NNE 04:06:25 72° E 04:07:20 51° SSE
NOSS 7 (E) 4.4 04:07:50 70° E 04:07:50 70° E 04:10:40 10° NE
SL-16 R/B 2.9 04:06:36 38° SW 04:07:47 42° W 04:13:35 10° NNW
SAR-Lupe-2 4.3 04:10:19 26° SE 04:12:01 52° ENE 04:15:30 10° N
Resurs 1-4 Rocket 3.2 04:10:29 10° NNW 04:14:55 27° WNW 04:16:05 25° W
NOSS 3-1 (C) 4.2 04:07:35 10° NNW 04:15:30 83° ENE 04:24:09 10° SSE
MOZ.5/SAFIR/RUBIN 5/SL-8 4.1 04:15:02 42° WSW 04:15:31 44° W 04:19:58 10° NNW
Cosmos 1697 Rocket 2.7 04:13:34 34° SSW 04:16:09 81° ESE 04:21:50 10° NNE
Cosmos 2100 Rocket 4.2 04:11:46 10° N 04:17:58 72° E 04:24:12 10° SSE
ATLAS 2A CENTAUR R/B 3.6 04:08:13 22° WSW 04:17:59 58° S 04:24:52 10° ESE
SL-08 R/B 4.5 04:20:49 25° W 04:20:49 25° W 04:24:16 10° NW
PSLV R/B 3.7 04:23:31 41° SE 04:23:31 41° SE 04:25:36 10° ESE
NOSS 7 (D) 4.4 04:22:58 55° SSW 04:23:41 87° ESE 04:26:58 10° NNE
PSLV R/B 4.4 04:23:37 41° WSW 04:23:59 41° W 04:27:58 10° NNW
Cosmos 1812 3.0 04:21:51 10° NNW 04:25:33 44° W 04:25:51 43° WSW
Meteor 1-14 Rocket 4.3 04:25:39 31° SSW 04:28:23 63° W 04:34:10 10° N
Meteor 1-25 Rocket 4.2 04:26:32 31° SSW 04:29:08 62° W 04:34:38 10° N
Okean 3 3.4 04:25:23 10° N 04:29:36 89° W 04:32:16 22° S
Cosmos 1602 4.1 04:28:38 24° SSE 04:30:47 59° E 04:34:34 10° NNE
H-2A R/B 4.5 04:29:03 10° NW 04:30:52 13° WNW 04:30:59 13° WNW
Lacrosse 5 rocket 2.4 04:29:40 25° S 04:31:38 40° ESE 04:35:51 10° NE
Meteor 1-18 Rocket 4.2 04:27:13 10° N 04:32:51 84° E 04:38:23 10° S
SL-8 R/B 3.7 04:28:17 10° WNW 04:33:00 56° SW 04:37:41 10° SE
Cosmos 1633 4.0 04:34:39 22° WNW 04:34:39 22° WNW 04:37:26 10° NNW
Cosmos 2123 Rocket 4.2 04:33:46 10° S 04:39:53 69° E 04:46:02 10° NNE
Meteor 2-12 Rocket 4.4 04:34:05 10° N 04:40:11 75° W 04:46:14 10° S
Sich 1 Rocket 3.7 04:38:02 17° S 04:41:24 72° E 04:45:48 10° N
Cosmos 2369 4.5 04:39:05 24° WSW 04:41:45 37° WNW 04:46:59 10° N
SL-16 R/B 4.4 04:38:48 10° SSE 04:42:56 21° E 04:47:04 10° NE
Cosmos 2219 4.3 04:38:56 10° NW 04:43:12 22° W 04:43:53 22° WSW
Cosmos 1980 Rocket 2.2 04:39:54 19° SSW 04:43:56 78° ESE 04:49:35 10° NNE
BREEZE-M DEB (TANK) 4.1 04:43:38 14° SSE 04:44:13 15° SE 04:45:43 10° E
BREEZE-M DEB (TANK) 3.2 04:42:06 10° WNW 04:45:15 68° SW 04:54:59 10° SE
COSMOS 2455 4.4 04:44:45 10° WNW 04:47:54 16° W 04:47:54 16° W
Okean 2 Rocket 4.4 04:46:05 10° SSE 04:50:11 39° E 04:54:18 10° NNE
ADEOS 4.1 04:46:01 10° N 04:50:56 43° WNW 04:54:02 21° SW
USA 229 DEB 4.4 04:45:20 10° NW 04:51:45 34° WSW 04:58:18 10° S
USA 229 4.4 04:45:26 10° NW 04:51:53 35° WSW 04:58:27 10° S
NOSS 3-1 (A) 4.1 04:45:06 10° NNW 04:53:04 82° WSW 05:01:45 10° SSE
NOSS 2-1 (C) 3.2 04:51:39 23° SSW 04:53:46 72° ESE 04:57:28 10° NE
NOSS 2-1 (D) 3.1 04:52:58 23° SSW 04:55:07 78° ESE 04:58:50 10° NNE
Cosmos 2173 Rocket 4.0 04:50:28 10° NNW 04:56:25 57° W 05:02:21 10° S
Atlas Centaur 2 2.7 04:54:57 18° SSW 04:56:36 24° SSE 05:00:09 10° ESE
Cosmos 1378 Rocket 3.6 04:55:32 10° NNW 04:59:56 63° W 05:04:19 10° S
Cosmos 1782 Rocket 3.5 04:58:32 13° S 05:02:23 76° W 05:06:46 10° N
Cosmos 2297 Rocket 2.6 05:00:03 10° NW 05:05:18 41° WSW 05:10:33 10° S
ASTEX 1 3.9 05:02:11 13° SSW 05:06:17 42° W 05:11:02 10° NNW
Meteor 1-11 Rocket 3.9 05:00:52 10° S 05:06:21 74° E 05:11:56 10° NNE
USA 102 2.7 05:05:39 24° SSE 05:06:43 83° WSW 05:10:57 10° NNW
Cosmos 1538 Rocket 4.0 05:01:44 10° NNW 05:07:08 82° WSW 05:12:27 10° SSE
Meteor 2-4 Rocket 4.4 05:04:34 10° N 05:10:20 59° E 05:15:54 10° SSE
Iridium 96 3.7 05:10:49 10° N 05:13:39 62° W 05:16:05 11° S
Cosmos 2227 Rocket 3.0 05:09:17 10° NW 05:14:11 30° WSW 05:19:02 10° SSW
Lacrosse 5 2.0 05:09:07 10° NW 05:14:12 82° NE 05:19:16 10° SE
Cosmos 1271 Rocket 3.8 05:13:18 16° SW 05:15:44 28° WNW 05:19:10 10° NNW
Shenzhou-11 Module 3.9 05:16:07 10° WNW 05:18:32 23° NNW 05:20:58 10° NE
ADEOS II 3.1 05:14:27 10° N 05:19:00 31° WNW 05:23:13 12° SW
Gbstr 26 Del rocket 4.1 05:17:40 11° W 05:20:49 28° NW 05:24:22 10° NNE
Aureole 2 Rocket 3.9 05:18:25 10° SSE 05:21:16 30° ESE 05:23:57 10° NE
Cosmos 1238 4.4 05:19:36 10° S 05:22:40 83° E 05:26:19 10° N
Cosmos 2016 Rocket 4.3 05:19:30 10° NNW 05:25:34 48° W 05:31:33 10° SSW
SL-19 R/B 4.1 05:22:20 10° S 05:25:40 59° WSW 05:29:33 10° NNW
Meteosat 1 Rocket2 3.5 05:21:26 11° WSW 05:26:04 44° S 05:29:48 10° ESE
PSLV R/B 4.0 05:23:10 10° NNE 05:27:17 84° E 05:31:25 10° S
NOSS 2-1 (E) 3.6 05:24:18 12° SW 05:27:25 46° WNW 05:31:07 10° NNE
Cosmos 2151 Rocket 4.2 05:24:19 10° S 05:28:41 59° E 05:33:03 10° NNE
Cosmos 1356 3.9 05:31:11 10° NNW 05:34:28 41° W 05:37:44 10° SSW
Meteor 1-28 Rocket 3.8 05:32:59 10° SSE 05:36:39 60° ENE 05:40:20 10° N
Cosmos 1340 Rocket 3.1 05:33:53 10° NNW 05:37:38 43° W 05:41:20 10° SSW
CZ-4B R/B 3.1 05:33:57 10° N 05:38:07 62° WNW 05:42:27 10° SSW
GPS 2-04 Rocket1 3.0 05:38:07 10° WNW 05:42:17 72° N 05:46:16 10° E
SJ 16-02 4.3 05:40:28 10° ESE 05:42:21 13° E 05:44:16 10° ENE
Delta 2 Rocket 4.2 05:38:14 10° W 05:42:24 38° SSW 05:47:05 10° SE
SL-24 R/B - RUBIN 2 4.4 05:38:49 10° NW 05:42:40 29° WSW 05:46:44 10° S
Cosmos 1975 Rocket 3.5 05:38:53 10° NNW 05:43:08 43° W 05:47:22 10° SSW
CZ-4B R/B 4.1 05:39:45 10° NNE 05:43:49 71° ESE 05:47:40 10° S
